TimeEST,TemperatureF,Dew PointF,Humidity,Sea Level PressureIn,VisibilityMPH,Wind Direction,Wind SpeedMPH,Gust SpeedMPH,PrecipitationIn,Events,Conditions,WindDirDegrees,DateUTC
12:53 AM,69.1,66.0,90,30.12,10.0,Calm,Calm,-,N/A,,Clear,0,2013-01-04 05:53:00
1:53 AM,69.1,66.0,90,30.12,10.0,Calm,Calm,-,N/A,,Clear,0,2013-01-04 06:53:00
2:53 AM,69.1,66.0,90,30.11,10.0,South,3.5,-,N/A,,Clear,190,2013-01-04 07:53:00
3:53 AM,68.0,64.9,90,30.11,10.0,Calm,Calm,-,N/A,,Clear,0,2013-01-04 08:53:00
4:53 AM,68.0,64.9,90,30.11,10.0,Calm,Calm,-,N/A,,Partly Cloudy,0,2013-01-04 09:53:00
5:12 AM,68.0,66.2,94,30.12,10.0,NNW,4.6,-,N/A,,Mostly Cloudy,340,2013-01-04 10:12:00
5:30 AM,68.0,66.2,94,30.12,10.0,NNW,3.5,-,N/A,,Scattered Clouds,340,2013-01-04 10:30:00
5:53 AM,68.0,66.0,93,30.13,10.0,NNW,3.5,-,N/A,,Scattered Clouds,340,2013-01-04 10:53:00
6:53 AM,68.0,64.9,90,30.14,10.0,Calm,Calm,-,N/A,,Partly Cloudy,0,2013-01-04 11:53:00
7:53 AM,69.1,66.9,93,30.17,10.0,Calm,Calm,-,N/A,,Partly Cloudy,0,2013-01-04 12:53:00
8:53 AM,73.0,68.0,84,30.19,10.0,North,3.5,-,N/A,,Partly Cloudy,350,2013-01-04 13:53:00
9:53 AM,77.0,70.0,79,30.20,10.0,Variable,3.5,-,N/A,,Clear,0,2013-01-04 14:53:00
10:25 AM,78.8,69.8,74,30.20,10.0,SW,3.5,-,N/A,,Mostly Cloudy,230,2013-01-04 15:25:00
10:53 AM,78.1,69.1,74,30.19,10.0,Calm,Calm,-,N/A,,Mostly Cloudy,0,2013-01-04 15:53:00
11:29 AM,78.8,69.8,74,30.19,10.0,Calm,Calm,-,N/A,,Mostly Cloudy,0,2013-01-04 16:29:00
11:53 AM,78.1,69.1,74,30.18,10.0,ENE,3.5,-,N/A,,Mostly Cloudy,60,2013-01-04 16:53:00
12:53 PM,82.0,68.0,62,30.15,10.0,NW,4.6,-,N/A,,Mostly Cloudy,320,2013-01-04 17:53:00
1:53 PM,79.0,68.0,69,30.13,10.0,ESE,8.1,-,N/A,,Scattered Clouds,110,2013-01-04 18:53:00
2:53 PM,78.1,68.0,71,30.12,10.0,SE,6.9,-,N/A,,Mostly Cloudy,130,2013-01-04 19:53:00
3:53 PM,78.1,69.1,74,30.14,10.0,East,5.8,-,N/A,,Mostly Cloudy,90,2013-01-04 20:53:00
4:53 PM,75.9,70.0,82,30.14,10.0,East,6.9,-,N/A,,Mostly Cloudy,80,2013-01-04 21:53:00
5:53 PM,75.0,70.0,84,30.16,10.0,East,5.8,-,N/A,,Scattered Clouds,80,2013-01-04 22:53:00
6:53 PM,75.9,70.0,82,30.18,10.0,East,5.8,-,N/A,,Overcast,80,2013-01-04 23:53:00
7:53 PM,75.9,70.0,82,30.20,10.0,NE,5.8,-,N/A,,Overcast,50,2013-01-05 00:53:00
8:53 PM,75.9,69.1,79,30.22,10.0,ENE,5.8,-,N/A,,Mostly Cloudy,60,2013-01-05 01:53:00
9:53 PM,75.0,69.1,82,30.22,10.0,NNE,4.6,-,N/A,,Scattered Clouds,20,2013-01-05 02:53:00
10:53 PM,73.9,70.0,87,30.22,10.0,NNE,5.8,-,N/A,,Mostly Cloudy,20,2013-01-05 03:53:00
10:57 PM,73.4,69.8,88,30.22,10.0,North,4.6,-,N/A,,Mostly Cloudy,10,2013-01-05 03:57:00
11:53 PM,71.1,68.0,90,30.21,10.0,NNE,5.8,-,N/A,,Scattered Clouds,20,2013-01-05 04:53:00